Birmingham, United Kingdom

1:09 PM BST on June 22, 2017 (GMT +0100)
Birmingham

Weather History for EGBB - March, 2014

Change the Weather History Date:

Thursday, March 13, 2014

  Actual Average Record
Temperature  
Mean Temperature 42 °F -  
Max Temperature 55 °F 50 °F 57 °F (2017)
Min Temperature 30 °F 36 °F 24 °F (2013)
Degree Days  
Heating Degree Days 22    
Moisture  
Dew Point 37 °F    
Average Humidity 87    
Maximum Humidity 100    
Minimum Humidity 54    
Precipitation  
Precipitation 0.00 in 0.07 in - ()
Sea Level Pressure  
Sea Level Pressure 30.42 in    
Wind  
Wind Speed 2 mph ()    
Max Wind Speed 7 mph    
Max Gust Speed -    
Visibility 1.8 miles    
Events Fog    
Averages and records for this station are not official NWS values.
T = Trace of Precipitation, MM = Missing Value Source: Averaged Metar Reports

Daily Weather History Graph

Daily Weather History Graph

Search for Another Location

Airport or City:

Trip Planner

Search our weather history database for the weather conditions in past years. The results will help you decide how hot, cold, wet, or windy it might be!

Date:

Astronomy

Mar. 13, 2014 Rise Set
Actual Time 6:26 AM GMT 6:07 PM GMT
Civil Twilight 5:52 AM GMT 6:41 PM GMT
Nautical Twilight 5:12 AM GMT 7:21 PM GMT
Astronomical Twilight 4:31 AM GMT 8:02 PM GMT
Moon 3:02 PM GMT (3/13) 4:43 AM GMT (3/13)
Length of Visible Light 12h 49m
Length of Day
11h 41m
Waxing Gibbous, 90% of the Moon is Illuminated
Mar 13
Waxing Gibbous
Mar 16
Full
Mar 24
Last Quarter
Mar 30
New
Apr 7
First Quarter

Hourly Weather History & Observations

Time (GMT) Temp. Windchill Dew Point Humidity Pressure Visibility Wind Dir Wind Speed Gust Speed Precip Events Conditions
12:20 AM 32.0 °F - 32.0 °F 100% 30.42 in 0.0 mi Calm Calm - N/A Fog Fog
12:50 AM 32.0 °F - 32.0 °F 100% 30.42 in 0.1 mi NW 2.3 mph - N/A Fog Light Freezing Fog
1:20 AM 32.0 °F - 32.0 °F 100% 30.42 in 0.1 mi Calm Calm - N/A Fog Light Freezing Fog
1:50 AM 30.2 °F - 30.2 °F 100% 30.42 in 0.1 mi Calm Calm - N/A Fog Light Freezing Fog
2:20 AM 30.2 °F - 30.2 °F 100% 30.42 in 0.0 mi Calm Calm - N/A Fog Light Freezing Fog
2:50 AM 30.2 °F - 30.2 °F 100% 30.42 in 0.1 mi Calm Calm - N/A Fog Light Freezing Fog
3:20 AM 30.2 °F - 30.2 °F 100% 30.42 in 0.0 mi North 2.3 mph - N/A Fog Light Freezing Fog
3:50 AM 30.2 °F - 30.2 °F 100% 30.39 in 0.0 mi NNW 2.3 mph - N/A Fog Light Freezing Fog
4:20 AM 30.2 °F - 30.2 °F 100% 30.39 in 0.7 mi SSE 2.3 mph - N/A Fog Patches of Fog
4:50 AM 30.2 °F - 30.2 °F 100% 30.42 in 0.7 mi Calm Calm - N/A Fog Patches of Fog
5:20 AM 30.2 °F 26.7 °F 30.2 °F 100% 30.42 in 1.2 mi SE 3.5 mph - N/A Fog Scattered Clouds
5:50 AM 30.2 °F 26.7 °F 30.2 °F 100% 30.42 in 0.3 mi SSE 3.5 mph - N/A Fog Light Freezing Fog
6:20 AM 30.2 °F 26.7 °F 30.2 °F 100% 30.42 in 0.1 mi SSE 3.5 mph - N/A Fog Light Freezing Fog
6:50 AM 32.0 °F - 32.0 °F 100% 30.42 in 0.0 mi Calm Calm - N/A Fog Light Freezing Fog
7:20 AM 32.0 °F - 32.0 °F 100% 30.42 in 0.0 mi Calm Calm - N/A Fog Fog
7:50 AM 35.6 °F 32.8 °F 35.6 °F 100% 30.42 in 0.0 mi NW 3.5 mph - N/A Fog Fog
8:20 AM 37.4 °F 34.9 °F 37.4 °F 100% 30.42 in 0.0 mi Variable 3.5 mph - N/A Fog Fog
8:50 AM 39.2 °F 35.9 °F 39.2 °F 100% 30.45 in 0.0 mi NW 4.6 mph - N/A Fog Fog
9:20 AM 39.2 °F 37.0 °F 39.2 °F 100% 30.45 in 0.1 mi NW 3.5 mph - N/A Fog Fog
9:50 AM 41.0 °F - 41.0 °F 100% 30.45 in 1.2 mi Variable 2.3 mph - N/A   Mostly Cloudy
10:20 AM 44.6 °F 43.1 °F 42.8 °F 93% 30.45 in - NW 3.5 mph - N/A   Mist
10:50 AM 46.4 °F 44.3 °F 42.8 °F 87% 30.45 in 3.1 mi NW 4.6 mph - N/A   Mist
11:20 AM 50.0 °F - 42.8 °F 76% 30.45 in 3.7 mi NW 4.6 mph - N/A   Unknown
11:50 AM 51.8 °F - 42.8 °F 71% 30.45 in - Variable 3.5 mph - N/A   Clear
12:20 PM 53.6 °F - 42.8 °F 67% 30.42 in - NW 4.6 mph - N/A   Clear
12:50 PM 53.6 °F - 42.8 °F 67% 30.42 in 5.0 mi NW 4.6 mph - N/A   Unknown
1:20 PM 53.6 °F - 41.0 °F 62% 30.42 in - WNW 4.6 mph - N/A   Clear
1:50 PM 55.4 °F - 41.0 °F 58% 30.42 in - Variable 3.5 mph - N/A   Clear
2:20 PM 55.4 °F - 41.0 °F 58% 30.39 in 5.6 mi WNW 4.6 mph - N/A   Unknown
2:50 PM 55.4 °F - 41.0 °F 58% 30.39 in 5.0 mi NNW 6.9 mph - N/A   Unknown
3:20 PM 55.4 °F - 39.2 °F 54% 30.39 in 5.0 mi NW 4.6 mph - N/A   Unknown
3:50 PM 53.6 °F - 39.2 °F 58% 30.39 in 5.6 mi NNW 6.9 mph - N/A   Unknown
4:20 PM 53.6 °F - 41.0 °F 62% 30.39 in 5.0 mi NW 5.8 mph - N/A   Unknown
4:50 PM 53.6 °F - 41.0 °F 62% 30.39 in 5.0 mi NW 4.6 mph - N/A   Unknown
5:20 PM 51.8 °F - 41.0 °F 67% 30.39 in 5.0 mi NW 4.6 mph - N/A   Unknown
5:50 PM 50.0 °F - 41.0 °F 71% 30.39 in 5.0 mi North 4.6 mph - N/A   Unknown
6:20 PM 48.2 °F - 39.2 °F 71% 30.42 in 4.3 mi Variable 3.5 mph - N/A   Unknown
6:50 PM 44.6 °F - 39.2 °F 81% 30.42 in 3.7 mi NW 2.3 mph - N/A   Unknown
7:20 PM 42.8 °F 40.1 °F 39.2 °F 87% 30.42 in - NW 4.6 mph - N/A   Haze
7:50 PM 44.6 °F 42.2 °F 39.2 °F 81% 30.42 in - NW 4.6 mph - N/A   Haze
8:20 PM 41.0 °F 39.0 °F 39.2 °F 93% 30.42 in - NW 3.5 mph - N/A   Haze
8:50 PM 39.2 °F 37.0 °F 37.4 °F 93% 30.45 in 1.7 mi NW 3.5 mph - N/A   Haze
9:20 PM 39.2 °F - 37.4 °F 93% 30.42 in 1.7 mi NW 2.3 mph - N/A   Haze
9:50 PM 37.4 °F - 37.4 °F 100% 30.45 in 1.2 mi NW 2.3 mph - N/A   Mist
10:20 PM 37.4 °F - 35.6 °F 93% 30.45 in 0.9 mi NW 2.3 mph - N/A   Mist
10:50 PM 37.4 °F - 35.6 °F 93% 30.45 in 0.8 mi NNW 2.3 mph - N/A   Mist
11:20 PM 35.6 °F - 35.6 °F 100% 30.45 in 0.7 mi NW 2.3 mph - N/A   Mist
11:50 PM 35.6 °F - 35.6 °F 100% 30.45 in 0.7 mi Calm Calm - N/A   Mist